This demonstration page uses our WeatherBlox Daily Observations layout. Learn more.

Left ArrowRight Arrow

41.86663, -103.66717

Hourly Observations for June 8, 2016

Temp ( °F °C ) Dew Point ( °F °C ) Humidity (%) Winds ( mph kmh ) Pressure ( in mb ) Visibility ( mi km ) Precip ( " mm )
12:53 am 00:53 Clear 64 17.8 56 13.3 75 75 E 6 9 29.75 1007 10 16 0.00 0.00
1:53 am 01:53 Clear 61 16.1 56 13.3 84 84 ESE 7 11 29.74 1007 10 16 0.00 0.00
2:53 am 02:53 Clear 60 15.6 54 12.2 80 80 E 5 7 29.74 1007 10 16 0.00 0.00
3:53 am 03:53 Clear 58 14.4 53 11.7 84 84 Calm 29.75 1008 10 16 0.00 0.00
4:53 am 04:53 Clear 57 13.9 52 11.1 83 83 NNE 8 13 29.75 1007 10 16 0.00 0.00
5:53 am 05:53 Sunny 58 14.4 52 11.1 81 81 NNW 3 6 29.76 1008 10 16 0.00 0.00
6:53 am 06:53 Sunny 63 17.2 53 11.7 70 70 Calm 29.76 1008 10 16 0.00 0.00
7:53 am 07:53 Sunny 68 20 51 10.6 55 55 WNW 9 15 29.76 1008 10 16 0.00 0.00
8:53 am 08:53 Sunny 71 21.7 50 10 47 47 WNW 8 13 29.77 1008 10 16 0.00 0.00
9:53 am 09:53 Sunny 75 23.9 51 10.6 43 43 WNW 9 15 29.75 1007 10 16 0.00 0.00
10:53 am 10:53 Sunny 80 26.7 53 11.7 39 39 WNW 7 11 29.74 1007 10 16 0.00 0.00
11:53 am 11:53 Sunny 85 29.4 50 10 30 30 VRB 5 7 29.73 1007 10 16 0.00 0.00
12:53 pm 12:53 Sunny 88 31.1 46 7.8 23 23 VRB 3 6 29.72 1007 10 16 0.00 0.00
1:53 pm 13:53 Sunny 89 31.7 46 7.8 23 23 VRB 6 9 29.71 1006 10 16 0.00 0.00
2:53 pm 14:53 Sunny 90 32.2 45 7.2 21 21 WSW 7 11 29.71 1006 10 16 0.00 0.00
3:53 pm 15:53 Sunny 91 32.8 45 7.2 20 20 WSW 8 13 29.69 1005 10 16 0.00 0.00
4:53 pm 16:53 Sunny 92 33.3 44 6.7 19 19 SSW 7 11 29.68 1005 10 16 0.00 0.00
5:53 pm 17:53 Sunny 90 32.2 47 8.3 23 23 E 12 19 29.67 1005 10 16 0.00 0.00
6:53 pm 18:53 Sunny 88 31.1 46 7.8 23 23 E 13 20 29.67 1005 10 16 0.00 0.00
7:53 pm 19:53 Sunny 81 27.2 49 9.4 33 33 E 7 11 29.69 1005 10 16 0.00 0.00
8:53 pm 20:53 Clear 79 26.1 48 8.9 34 34 NNE 10 17 29.69 1005 10 16 0.00 0.00
9:53 pm 21:53 Clear 79 26.1 47 8.3 32 32 SSE 8 13 29.71 1006 10 16 0.00 0.00
10:53 pm 22:53 Clear 71 21.7 51 10.6 49 49 Calm 29.71 1006 10 16 0.00 0.00
11:53 pm 23:53 Clear 72 22.2 50 10 46 46 SW 3 6 29.68 1005 10 16 0.00 0.00

Powered by AerisWeather